sat.trackr.live / text

‹ back to catalog

STARLINK-34539

NORAD 64674 · 2025-139L

PAYLOAD ACTIVE UNKNOWN

§ Identity

Operator
Country
US
Launch date
2025-06-28
Launch site
AFETR
Launch vehicle
Mass (kg)
RCS (m²)

Purposes: comms

External: N2YO · Heavens-Above · Gunter

§ Orbital elements

Epoch: 2026-05-25T03:19:53.817312Z

Period
93.85 min
Inclination
53.1583°
Eccentricity
0.0001381
Mean motion
15.34394179 rev/d
Perigee alt
461.8 km
Apogee alt
463.7 km
Semi-major
6,840.9 km
B*
1.2192e-3
RAAN
130.8919°
Arg perigee
114.5635°
Mean anomaly
245.5511°
Rev number
5,190

§ Raw data

STARLINK-345391 64674U 25139L   26145.13881733  .00041033  00000+0  12192-2 0  99962 64674  53.1583 130.8919 0001381 114.5635 245.5511 15.34394179 51907

JSON: /api/v1/satellites/64674 · /tle

For live sub-satellite position, see the globe view (requires WebGL).

§ Visibility from observer

Set your observer location to see the next 7 days of passes ≥ 10°. The values pass through the URL so the page stays shareable.

No JS? Fill the form by hand. The geolocation button needs JavaScript.